Hourly Data Report for September 15, 2017

All times are specified in Local Standard Time (LST). Add 1 hour to adjust for Daylight Saving Time where and when it is observed.

ALGONQUIN PARK EAST GATE
ONTARIO

45°32'00.000" N
78°16'00.000" W
397.00 m
6080192
71581
TNK

Download Data

Hourly Data (September 2017)
Hourly Data Report for September 15, 2017
Temp Definition
°C
Dew Point Temp Definition
°C
Rel Hum Definition
%
Wind Dir Definition
10's deg

Wind Spd Definition
km/h
Visibility Definition
km
Stn Press Definition
kPa
Hmdx Definition


Wind Chill Definition


Weather Definition


TIME
00:00 10.1 8.6 91 LegendMM LegendMM   96.88     LegendNANA
01:00 9.5 8.0 91 LegendMM LegendMM   96.91     LegendNANA
02:00 9.1 7.8 92 LegendMM LegendMM   96.92     LegendNANA
03:00 8.5 7.2 92 LegendMM LegendMM   96.92     LegendNANA
04:00 8.4 7.2 92 LegendMM LegendMM   96.98     LegendNANA
05:00 7.9 6.7 92 LegendMM LegendMM   97.05     LegendNANA
06:00 7.5 6.3 92 LegendMM LegendMM   97.07     LegendNANA
07:00 8.5 7.4 93 LegendMM LegendMM   97.15     LegendNANA
08:00 11.7 10.1 90 LegendMM LegendMM   97.19     LegendNANA
09:00 16.1 13.6 85 LegendMM LegendMM   97.21     LegendNANA
10:00 19.8 14.9 74 LegendMM LegendMM   97.19     LegendNANA
11:00 21.7 12.4 56 LegendMM LegendMM   97.20     LegendNANA
12:00 23.2 13.3 54 LegendMM LegendMM   97.19 26   LegendNANA
13:00 23.3 12.2 49 LegendMM LegendMM   97.17 26   LegendNANA
14:00 24.1 13.9 53 LegendMM LegendMM   97.18 27   LegendNANA
15:00 23.9 13.5 52 LegendMM LegendMM   97.17 27   LegendNANA
16:00 23.2 13.7 55 LegendMM LegendMM   97.18 26   LegendNANA
17:00 21.2 15.1 68 LegendMM LegendMM   97.21 25   LegendNANA
18:00 18.6 14.6 78 LegendMM LegendMM   97.22     LegendNANA
19:00 16.5 14.2 86 LegendMM LegendMM   97.27     LegendNANA
20:00 15.1 13.2 89 LegendMM LegendMM   97.33     LegendNANA
21:00 13.8 12.1 90 LegendMM LegendMM   97.37     LegendNANA
22:00 12.7 11.2 91 LegendMM LegendMM   97.39     LegendNANA
23:00 11.9 10.5 91 LegendMM LegendMM   97.43     LegendNANA

Notes on Data Quality.

Legend

  • E = Estimated
  • M = Missing
  • NA = Not Available
  • ‡ = Partner data that is not subject to review by the National Climate Archives
Date modified: